Temp
-14 -15 -14 -14 -14 -14 -14 -14 -14 -14 -14 -15 -13 -13 -13 -13 -13 -13 -13 -13 -14 -14 -14 -14 -13 -14 -14 -14 -14 -14 -14 -15 -14 -14 -14 -14 -14 -14
-15 -15 -15 -15 -15 -15 -15 -15 -14 -15 -14 -15 -14 -13 -13 -14 -13 -13 -13 -13 -14 -14 -14 -14 -14 -14 -14 -14 -14 -14 -14 -14 -14 -14 -14 -14 -14 -14
-16 -15 -15 -15 -15 -15 -15 -15 -15 -14 -14 -15 -14 -14 -14 -14 -13 -13 -13 -13 -13 -14 -14 -14 -14 -14 -14 -14 -14 -13 -13 -14 -14 -14 -14 -14 -15 -14
-16 -16 -16 -16 -15 -15 -15 -15 -15 -15 -14 -15 -14 -14 -14 -14 -14 -14 -14 -13 -13 -14 -14 -14 -14 -14 -14 -14 -14 -14 -13 -13 -14 -15 -14 -15 -15 -15
-16 -16 -16 -16 -16 -15 -16 -15 -15 -15 -14 -14 -15 -14 -14 -15 -14 -14 -14 -14 -13 -13 -14 -14 -14 -14 -14 -14 -14 -14 -14 -14 -14 -14 -15 -15 -15 -15
-16 -16 -16 -16 -16 -16 -16 -15 -15 -15 -15 -15 -15 -14 -14 -15 -14 -14 -14 -14 -14 -13 -14 -14 -14 -14 -14 -14 -14 -15 -15 -14 -14 -14 -14 -15 -15 -15
-16 -16 -16 -16 -16 -16 -15 -15 -15 -16 -15 -15 -15 -15 -14 -15 -14 -14 -14 -14 -14 -14 -14 -14 -14 -14 -14 -14 -15 -15 -15 -15 -15 -15 -15 -15 -15 -15
-17 -17 -17 -17 -17 -17 -16 -16 -16 -16 -16 -15 -15 -15 -15 -15 -14 -14 -14 -14 -14 -14 -14 -14 -14 -14 -14 -15 -15 -15 -15 -15 -15 -15 -15 -15 -15 -15
-16 -15 -17 -17 -16 -17 -17 -16 -16 -16 -17 -16 -15 -15 -15 -15 -15 -15 -15 -14 -14 -14 -14 -14 -14 -14 -14 -13 -14 -15 -15 -15 -15 -15 -15 -15 -15 -15
-17 -17 -17 -17 -17 -16 -16 -16 -16 -16 -16 -16 -15 -16 -15 -15 -15 -15 -15 -14 -14 -14 -14 -14 -14 -14 -14 -14 -14 -14 -15 -15 -15 -15 -15 -15 -15 -15
-17 -17 -18 -18 -17 -17 -17 -17 -16 -16 -16 -16 -16 -16 -16 -16 -15 -15 -15 -15 -15 -14 -14 -14 -14 -14 -13 -14 -14 -14 -14 -15 -15 -15 -15 -15 -16 -16
-17 -18 -17 -17 -17 -17 -17 -17 -17 -17 -17 -16 -16 -17 -16 -16 -16 -15 -15 -15 -15 -15 -15 -15 -15 -15 -14 -14 -14 -14 -15 -15 -15 -15 -16 -16 -15 -15
-18 -17 -18 -18 -18 -17 -17 -18 -18 -18 -17 -17 -17 -17 -17 -17 -17 -16 -15 -15 -15 -15 -16 -15 -15 -15 -15 -15 -15 -15 -15 -15 -15 -15 -15 -16 -16 -15
-18 -18 -18 -18 -18 -17 -17 -18 -18 -18 -18 -18 -18 -17 -17 -17 -18 -17 -16 -16 -16 -16 -17 -17 -15 -15 -15 -15 -15 -15 -15 -15 -15 -16 -16 -16 -16 -16
-20 -18 -18 -18 -18 -18 -18 -18 -18 -18 -18 -18 -18 -19 -18 -18 -18 -18 -18 -17 -18 -17 -17 -17 -17 -17 -16 -15 -15 -15 -15 -15 -16 -15 -16 -16 -16 -16
-21 -20 -20 -20 -19 -19 -19 -18 -18 -18 -18 -18 -18 -18 -18 -18 -18 -17 -17 -17 -18 -18 -18 -18 -18 -17 -17 -17 -16 -16 -15 -15 -15 -15 -16 -16 -16 -16
-22 -23 -22 -21 -20 -19 -19 -19 -18 -18 -18 -18 -18 -18 -18 -18 -18 -18 -17 -17 -17 -18 -18 -18 -18 -18 -18 -17 -17 -16 -16 -16 -15 -15 -16 -16 -16 -16
-21 -21 -21 -22 -22 -21 -20 -19 -19 -19 -18 -18 -18 -18 -17 -18 -18 -18 -18 -18 -17 -18 -18 -18 -18 -18 -18 -18 -18 -17 -16 -16 -16 -16 -16 -16 -16 -16
-22 -22 -21 -21 -21 -21 -21 -20 -20 -19 -19 -18 -18 -18 -17 -17 -17 -17 -18 -18 -18 -18 -18 -18 -18 -18 -18 -18 -18 -17 -17 -17 -17 -16 -16 -16 -16 -16
-23 -23 -22 -21 -21 -20 -20 -20 -20 -20 -19 -19 -18 -18 -18 -17 -17 -18 -18 -17 -18 -18 -18 -18 -18 -18 -18 -18 -18 -18 -18 -17 -17 -17 -16 -16 -16 -17
-24 -23 -23 -22 -22 -21 -21 -20 -20 -20 -19 -19 -19 -19 -18 -18 -18 -17 -17 -17 -17 -17 -17 -17 -17 -17 -18 -18 -18 -18 -18 -18 -17 -17 -17 -17 -17 -17
-24 -24 -24 -24 -24 -23 -22 -21 -21 -20 -20 -20 -19 -18 -18 -18 -18 -18 -17 -17 -17 -17 -17 -17 -17 -17 -17 -18 -18 -18 -18 -17 -18 -18 -17 -17 -17 -17
-25 -25 -24 -24 -24 -24 -23 -23 -22 -21 -21 -20 -20 -20 -19 -19 -18 -18 -18 -18 -17 -17 -17 -17 -17 -17 -17 -17 -17 -18 -18 -18 -17 -18 -18 -18 -18 -17
Height
5621 5635 5643 5648 5651 5652 5653 5655 5658 5664 5670 5673 5672 5678 5680 5684 5686 5690 5692 5694 5698 5701 5703 5705 5705 5706 5708 5710 5711 5714 5716 5716 5717 5717 5717 5717 5717 5718
5619 5624 5629 5635 5639 5641 5644 5647 5649 5653 5659 5661 5662 5665 5668 5672 5675 5679 5683 5685 5688 5691 5694 5696 5698 5700 5701 5702 5703 5705 5706 5708 5709 5710 5710 5711 5711 5712
5604 5609 5615 5620 5625 5628 5632 5636 5640 5642 5645 5650 5649 5652 5656 5661 5665 5668 5671 5675 5679 5682 5685 5688 5690 5693 5694 5696 5696 5697 5698 5700 5700 5702 5702 5702 5703 5704
5590 5596 5601 5607 5611 5615 5620 5625 5628 5630 5632 5637 5638 5642 5644 5649 5653 5656 5659 5664 5669 5672 5675 5678 5681 5683 5685 5686 5687 5689 5690 5690 5691 5692 5693 5694 5694 5695
5576 5580 5586 5594 5600 5603 5608 5612 5616 5619 5621 5624 5628 5630 5632 5637 5641 5645 5649 5653 5657 5661 5664 5667 5670 5673 5675 5676 5678 5680 5681 5682 5684 5684 5684 5684 5685 5686
5561 5568 5574 5580 5587 5593 5599 5601 5605 5607 5610 5612 5617 5619 5622 5626 5630 5634 5637 5641 5647 5650 5653 5656 5660 5662 5665 5667 5667 5670 5673 5674 5675 5675 5675 5675 5676 5677
5549 5555 5562 5567 5574 5580 5585 5587 5591 5594 5598 5602 5605 5608 5612 5615 5619 5623 5625 5630 5634 5638 5641 5643 5648 5651 5654 5657 5656 5659 5662 5664 5665 5666 5667 5666 5667 5667
5534 5542 5548 5555 5562 5567 5572 5574 5577 5581 5585 5590 5594 5597 5600 5603 5605 5607 5611 5616 5621 5628 5630 5634 5635 5639 5641 5644 5647 5649 5650 5652 5654 5655 5656 5656 5656 5657
5521 5532 5536 5546 5551 5556 5560 5563 5567 5572 5576 5580 5584 5587 5590 5591 5593 5596 5600 5606 5610 5614 5616 5620 5624 5627 5631 5629 5634 5635 5638 5640 5643 5644 5645 5645 5646 5646
5513 5520 5523 5533 5539 5543 5547 5550 5556 5561 5565 5569 5573 5574 5578 5581 5582 5585 5588 5594 5597 5600 5603 5605 5610 5616 5619 5621 5623 5626 5626 5628 5630 5632 5634 5635 5635 5635
5497 5505 5514 5522 5528 5533 5535 5537 5543 5548 5554 5557 5560 5562 5566 5569 5570 5573 5577 5580 5585 5587 5589 5593 5597 5600 5604 5606 5610 5613 5616 5616 5617 5621 5622 5623 5623 5623
5489 5495 5500 5510 5516 5521 5524 5527 5531 5536 5541 5545 5547 5551 5553 5556 5558 5561 5562 5567 5573 5574 5577 5580 5584 5587 5589 5591 5596 5601 5604 5605 5605 5607 5609 5611 5611 5611
5479 5484 5491 5498 5504 5510 5513 5515 5520 5523 5528 5531 5534 5538 5542 5544 5546 5547 5551 5554 5558 5562 5563 5565 5570 5573 5575 5580 5583 5587 5590 5591 5592 5593 5595 5596 5597 5598
5469 5475 5481 5488 5494 5496 5500 5504 5508 5513 5517 5519 5522 5526 5529 5533 5535 5537 5539 5542 5544 5547 5550 5553 5555 5558 5561 5564 5567 5571 5574 5576 5577 5581 5582 5582 5583 5586
5460 5465 5469 5474 5479 5483 5489 5491 5495 5502 5506 5509 5511 5514 5516 5519 5522 5526 5529 5531 5533 5534 5537 5538 5540 5542 5545 5550 5553 5556 5558 5562 5563 5564 5567 5569 5570 5571
5453 5455 5459 5463 5467 5470 5475 5479 5484 5488 5492 5497 5500 5502 5505 5507 5510 5512 5516 5519 5522 5525 5526 5527 5528 5529 5532 5536 5539 5541 5544 5546 5549 5550 5552 5554 5556 5556
5447 5449 5449 5451 5455 5458 5462 5466 5469 5473 5477 5482 5486 5489 5493 5495 5498 5500 5503 5506 5509 5511 5514 5516 5517 5517 5518 5519 5521 5526 5529 5530 5533 5536 5538 5540 5540 5542
5436 5438 5440 5443 5444 5446 5448 5451 5455 5458 5462 5466 5470 5474 5478 5482 5485 5488 5490 5492 5495 5498 5500 5502 5504 5504 5504 5505 5506 5509 5513 5515 5518 5520 5523 5525 5527 5528
5421 5423 5424 5426 5428 5431 5433 5435 5438 5442 5446 5448 5452 5456 5460 5464 5468 5472 5474 5477 5481 5483 5486 5489 5490 5492 5493 5494 5494 5494 5498 5500 5502 5504 5506 5508 5512 5513
5408 5408 5409 5410 5412 5413 5416 5419 5422 5425 5428 5431 5435 5438 5442 5446 5449 5453 5457 5461 5465 5467 5470 5472 5475 5477 5478 5480 5481 5483 5481 5484 5487 5489 5491 5492 5495 5496
5394 5394 5394 5395 5395 5397 5399 5401 5403 5406 5409 5413 5415 5418 5422 5427 5431 5435 5438 5442 5446 5450 5453 5456 5459 5461 5463 5466 5469 5470 5470 5472 5471 5474 5477 5477 5479 5481
5382 5380 5378 5378 5378 5378 5380 5382 5383 5386 5389 5393 5396 5399 5403 5407 5410 5415 5419 5423 5427 5431 5436 5438 5441 5444 5447 5450 5453 5455 5457 5458 5458 5459 5461 5462 5464 5466
5370 5369 5367 5365 5364 5364 5364 5364 5364 5365 5367 5370 5374 5377 5380 5384 5389 5393 5398 5402 5406 5410 5414 5419 5422 5424 5427 5431 5434 5438 5442 5443 5445 5446 5446 5447 5449 5449
Wind_Speed
53 66 68 65 62 61 63 61 53 51 44 40 46 45 40 39 39 36 41 42 40 38 35 34 33 31 32 33 31 31 31 28 27 26 28 24 21 29
71 66 67 65 63 62 59 60 58 49 41 40 42 45 42 44 38 39 41 43 42 39 37 36 35 31 31 31 31 32 32 33 32 30 31 30 27 25
66 65 63 62 60 62 61 56 53 56 53 39 41 39 40 44 46 45 41 45 46 43 39 38 38 36 33 30 28 28 33 34 33 34 34 32 31 31
64 64 62 59 56 52 55 55 49 37 39 36 43 43 45 43 49 48 38 44 48 45 43 39 38 39 38 34 32 30 27 28 31 33 33 32 32 31
61 63 59 59 55 50 42 42 40 37 38 42 38 35 39 44 40 38 45 43 46 48 46 44 40 40 39 37 34 31 29 29 28 30 30 30 33 35
60 63 61 60 60 56 53 46 44 41 41 39 33 35 37 38 42 36 37 41 47 50 48 47 44 43 40 36 34 33 32 32 33 31 31 32 34 37
55 58 60 60 53 48 45 45 43 44 47 47 44 42 43 40 41 47 48 47 46 48 45 55 49 46 44 42 38 35 35 34 35 34 33 30 32 31
55 54 59 51 49 49 47 42 41 41 43 43 42 37 35 40 51 41 43 46 49 50 52 45 46 51 53 42 41 40 38 36 37 35 35 35 34 33
46 49 41 42 46 44 44 41 43 43 42 42 41 42 41 40 43 41 43 41 48 50 55 59 53 49 46 49 50 48 40 38 39 38 39 37 35 36
59 49 37 44 42 45 42 41 43 45 46 44 44 44 44 47 45 45 43 50 39 38 41 42 49 55 49 53 45 47 41 41 41 39 40 40 38 37
50 50 50 53 44 45 45 45 48 45 44 43 44 44 46 45 45 49 48 44 48 42 37 44 41 46 49 48 52 48 53 52 47 41 41 42 39 40
61 72 64 48 44 48 49 49 50 46 44 44 42 40 42 44 44 45 48 52 55 47 42 45 47 49 51 46 47 55 46 49 46 46 44 43 44 41
51 52 44 43 49 48 47 46 45 43 44 44 42 41 41 41 40 43 45 47 51 55 53 55 49 53 53 55 57 56 59 50 51 50 48 45 46 44
56 52 52 54 50 44 49 49 48 47 47 45 43 43 41 40 36 35 38 36 42 47 50 51 58 57 54 56 55 56 52 53 58 49 53 49 48 48
37 57 52 49 54 51 54 49 49 50 48 48 47 46 44 43 41 38 38 35 31 31 34 45 54 55 54 57 56 56 54 52 51 56 54 53 50 50
25 33 44 47 48 51 50 52 54 54 51 49 48 49 49 47 44 42 41 40 37 33 38 33 41 51 57 56 56 55 53 57 52 58 58 58 52 51
30 30 32 35 42 48 52 55 55 57 56 54 53 52 54 52 51 48 46 46 43 40 40 41 40 38 43 47 54 51 44 51 45 44 51 54 51 54
38 38 38 40 41 42 49 56 59 60 60 59 59 58 61 59 58 57 54 51 49 46 44 46 47 43 42 45 52 53 46 49 51 50 51 49 52 53
45 45 45 46 47 47 51 53 58 61 63 62 61 62 61 61 61 61 60 58 55 52 51 51 49 48 49 39 33 59 55 43 48 47 50 50 50 49
43 48 51 53 54 56 56 57 58 60 63 64 65 63 65 66 66 64 63 62 60 58 56 55 54 53 50 47 46 43 36 52 50 46 46 47 52 49
38 42 46 53 58 60 62 64 64 64 65 65 66 66 66 67 67 66 66 63 59 56 54 55 56 56 55 53 49 44 42 45 48 55 54 46 46 48
39 39 41 45 46 50 58 64 68 70 70 70 72 73 72 71 69 68 68 67 64 62 61 60 59 59 60 58 55 51 48 49 47 42 44 49 47 47
40 40 40 42 44 45 44 46 55 63 68 70 70 72 75 77 77 77 76 75 75 74 73 71 70 68 65 64 61 59 56 53 51 49 50 51 50 49
Wind_Direction
251 244 249 252 253 257 261 267 272 268 266 270 258 252 250 247 245 248 247 247 249 248 251 254 257 250 241 239 246 250 251 250 256 260 263 283 280 262
244 249 248 249 251 253 260 264 272 273 256 258 259 250 246 240 246 243 243 246 245 245 248 249 253 253 247 245 247 249 251 251 253 256 260 266 268 265
240 244 248 249 252 252 256 264 269 270 270 252 250 242 246 249 240 246 240 241 240 241 245 244 248 250 249 248 249 255 255 254 254 255 257 259 260 264
241 244 246 250 255 258 257 264 262 260 258 256 238 242 250 241 240 238 235 236 241 241 241 241 243 248 249 249 249 251 255 255 255 258 257 257 260 265
241 244 248 251 253 253 242 256 267 264 260 247 246 241 241 236 231 235 240 237 238 240 239 238 240 245 247 247 248 252 259 258 260 257 257 258 263 260
238 243 246 251 255 259 267 264 257 251 256 244 240 245 242 237 239 238 244 234 237 236 237 236 240 246 245 245 244 251 258 259 260 263 262 263 268 267
237 243 246 250 257 260 256 254 252 245 248 240 238 239 237 235 241 242 240 236 236 241 245 238 242 241 244 244 245 249 253 258 259 260 261 266 268 273
225 238 239 249 253 254 246 240 240 240 241 239 232 239 239 240 238 248 241 240 242 248 247 247 238 239 236 241 247 248 248 254 255 258 259 265 269 273
221 207 233 239 243 231 236 239 240 242 238 238 238 240 241 242 241 246 245 247 249 246 248 246 244 236 238 237 248 246 244 249 253 257 262 263 268 269
230 234 233 240 242 231 238 241 242 243 240 239 240 245 246 244 245 245 249 237 245 239 246 243 238 241 247 249 251 250 249 251 252 255 260 263 265 270
232 240 236 238 226 232 243 244 245 247 247 247 249 248 249 251 249 248 248 237 244 246 240 235 238 238 250 248 253 254 254 241 250 254 259 264 265 266
246 251 235 227 225 234 240 244 248 249 252 249 248 250 250 255 257 251 249 249 252 244 242 244 242 243 243 244 248 252 245 251 254 256 257 263 265 267
228 231 226 233 243 239 247 249 250 248 248 246 247 248 252 252 254 260 259 254 250 248 251 255 250 244 245 247 253 254 255 253 251 254 258 261 265 265
224 225 241 243 237 244 249 247 244 243 245 245 245 248 251 252 254 257 258 256 253 251 251 250 256 257 253 251 253 253 248 259 255 250 257 259 263 266
235 236 238 239 249 247 243 244 243 241 245 246 245 247 249 252 254 254 254 253 256 261 264 258 255 256 255 257 255 252 260 249 255 255 257 259 262 266
246 237 237 239 242 240 243 242 243 241 243 244 246 248 247 248 250 252 254 256 257 261 264 274 267 258 256 254 256 257 253 246 256 257 253 257 258 263
266 264 257 250 242 242 241 242 246 244 243 244 247 249 249 250 251 251 253 254 254 255 262 262 266 271 261 248 248 250 253 245 243 249 241 254 261 259
270 265 261 255 251 249 247 242 243 247 249 246 248 249 248 250 251 252 253 255 256 257 257 262 262 266 266 264 259 243 246 252 248 246 248 255 259 258
270 267 266 264 262 260 254 247 244 246 249 251 252 250 249 250 251 252 253 254 257 256 257 258 262 261 264 270 278 257 250 253 248 249 249 248 251 254
270 269 268 266 264 260 257 253 252 250 248 247 249 250 249 250 253 256 257 256 256 255 256 258 257 258 262 264 262 274 271 259 243 249 252 251 250 258
283 273 268 265 263 262 260 257 255 254 252 249 250 250 249 250 251 252 252 253 252 252 253 254 256 258 259 260 263 262 264 277 255 258 258 251 251 257
283 285 279 273 270 266 264 261 258 255 254 254 251 250 249 250 250 249 250 250 250 252 253 254 255 255 257 258 260 262 261 264 272 253 261 253 257 260
282 280 283 281 273 270 269 269 266 261 258 257 256 255 253 251 251 249 249 250 251 253 253 253 253 254 254 255 257 258 261 262 264 264 257 267 268 261